Location: Acorn Hill
(36.4429°N, 76.5469°W)
Time: 22:01:07
(UTC+00:00)

BlueWalker 3 - Pass Details

Date: 10 December 2022
Orbit: 499 x 517 km, 53.2° (Epoch: 07 February)

Event Time Altitude Azimuth Distance (km) Brightness Sun altitude
Rises 23:11:12 0° 318° (NW) 2,622 5.9 -15.7°
Reaches altitude 10° 23:13:28 10° 324° (NW) 1,730 4.9 -16.1°
Maximum altitude 23:17:15 48° 39° (NE) 669 2.2 -16.9°
Enters shadow 23:18:12 38° 82° (E) 778 2.3 -17.1°
